Time,TemperatureF,DewpointF,PressureIn,WindDirection,WindDirectionDegrees,WindSpeedMPH,WindSpeedGustMPH,Humidity,HourlyPrecipIn,Conditions,Clouds,dailyrainin,SoftwareType,DateUTC
2013-04-23 00:01:00,70.3,69.0,29.99,North,5,5.0,-999.0,94,-99.99,,,0.00,weatherlink.com 1.10,2013-04-23 04:01:00,
2013-04-23 00:16:00,70.3,69.0,29.99,North,5,2.0,-999.0,94,-99.99,,,0.00,weatherlink.com 1.10,2013-04-23 04:16:00,
2013-04-23 00:31:00,70.5,69.0,29.99,NNE,16,0.0,-999.0,94,-99.99,,,0.00,weatherlink.com 1.10,2013-04-23 04:31:00,
2013-04-23 00:46:00,70.6,69.0,29.99,NNE,28,0.0,-999.0,94,-99.99,,,0.00,weatherlink.com 1.10,2013-04-23 04:46:00,
2013-04-23 01:01:00,70.6,68.0,29.98,NNE,33,5.0,-999.0,92,-99.99,,,0.00,weatherlink.com 1.10,2013-04-23 05:01:00,
2013-04-23 01:17:00,71.3,68.0,29.97,NNE,31,10.0,-999.0,90,-99.99,,,0.00,weatherlink.com 1.10,2013-04-23 05:17:00,
2013-04-23 01:32:00,71.5,68.0,29.97,NNE,30,0.0,-999.0,89,-99.99,,,0.00,weatherlink.com 1.10,2013-04-23 05:32:00,
2013-04-23 01:47:00,71.5,68.0,29.96,NNE,32,6.0,-999.0,89,-99.99,,,0.00,weatherlink.com 1.10,2013-04-23 05:47:00,
2013-04-23 02:02:00,71.5,69.0,29.96,NNE,30,5.0,-999.0,90,-99.99,,,0.00,weatherlink.com 1.10,2013-04-23 06:02:00,
2013-04-23 02:17:00,70.9,69.0,29.95,NNE,28,0.0,-999.0,92,-99.99,,,0.00,weatherlink.com 1.10,2013-04-23 06:17:00,
2013-04-23 02:32:00,70.7,69.0,29.95,NNE,16,0.0,-999.0,93,-99.99,,,0.00,weatherlink.com 1.10,2013-04-23 06:32:00,
2013-04-23 02:47:00,70.5,68.0,29.94,NNE,25,0.0,-999.0,93,-99.99,,,0.00,weatherlink.com 1.10,2013-04-23 06:47:00,
2013-04-23 03:02:00,70.1,68.0,29.94,North,10,0.0,-999.0,94,-99.99,,,0.00,weatherlink.com 1.10,2013-04-23 07:02:00,
2013-04-23 03:17:00,70.4,68.0,29.94,NE,45,2.0,-999.0,92,-99.99,,,0.00,weatherlink.com 1.10,2013-04-23 07:17:00,
2013-04-23 03:32:00,70.7,68.0,29.94,NE,43,4.0,-999.0,90,-99.99,,,0.00,weatherlink.com 1.10,2013-04-23 07:32:00,
2013-04-23 03:47:00,70.8,68.0,29.94,NE,36,0.0,-999.0,91,-99.99,,,0.00,weatherlink.com 1.10,2013-04-23 07:47:00,
2013-04-23 04:02:00,71.0,68.0,29.94,NNE,30,0.0,-999.0,90,-99.99,,,0.00,weatherlink.com 1.10,2013-04-23 08:02:00,
2013-04-23 04:17:00,70.9,68.0,29.93,NNE,26,5.0,-999.0,91,-99.99,,,0.00,weatherlink.com 1.10,2013-04-23 08:17:00,
2013-04-23 04:32:00,70.9,69.0,29.93,North,360,5.0,-999.0,92,-99.99,,,0.00,weatherlink.com 1.10,2013-04-23 08:32:00,
2013-04-23 04:47:00,68.8,66.0,29.93,North,355,0.0,-999.0,91,-99.99,,,0.00,weatherlink.com 1.10,2013-04-23 08:47:00,
2013-04-23 05:02:00,67.4,66.0,29.93,NNW,336,0.0,-999.0,94,-99.99,,,0.00,weatherlink.com 1.10,2013-04-23 09:02:00,
2013-04-23 05:17:00,66.9,66.0,29.94,NW,321,0.0,-999.0,96,-99.99,,,0.00,weatherlink.com 1.10,2013-04-23 09:17:00,
2013-04-23 05:32:00,67.2,66.0,29.94,NW,321,0.0,-999.0,96,-99.99,,,0.00,weatherlink.com 1.10,2013-04-23 09:32:00,
2013-04-23 05:47:00,68.6,68.0,29.94,NE,41,5.0,-999.0,98,-99.99,,,0.00,weatherlink.com 1.10,2013-04-23 09:47:00,
2013-04-23 06:02:00,70.3,69.0,29.94,North,9,7.0,-999.0,96,-99.99,,,0.00,weatherlink.com 1.10,2013-04-23 10:02:00,
2013-04-23 06:17:00,71.1,69.0,29.94,NE,50,4.0,-999.0,93,-99.99,,,0.00,weatherlink.com 1.10,2013-04-23 10:17:00,
2013-04-23 06:32:00,71.5,69.0,29.95,NE,56,9.0,-999.0,91,-99.99,,,0.00,weatherlink.com 1.10,2013-04-23 10:32:00,
2013-04-23 06:47:00,71.6,68.0,29.95,NE,40,8.0,-999.0,89,-99.99,,,0.00,weatherlink.com 1.10,2013-04-23 10:47:00,
2013-04-23 07:02:00,71.7,68.0,29.96,NE,46,4.0,-999.0,89,-99.99,,,0.00,weatherlink.com 1.10,2013-04-23 11:02:00,
2013-04-23 07:17:00,72.0,69.0,29.96,NE,40,5.0,-999.0,89,-99.99,,,0.00,weatherlink.com 1.10,2013-04-23 11:17:00,
2013-04-23 07:32:00,72.4,69.0,29.96,East,79,3.0,-999.0,88,-99.99,,,0.00,weatherlink.com 1.10,2013-04-23 11:32:00,
2013-04-23 07:47:00,73.2,70.0,29.97,ENE,65,7.0,-999.0,88,-99.99,,,0.00,weatherlink.com 1.10,2013-04-23 11:47:00,
2013-04-23 08:02:00,72.8,69.0,29.97,NE,41,10.0,-999.0,87,-99.99,,,0.00,weatherlink.com 1.10,2013-04-23 12:02:00,
2013-04-23 08:17:00,73.1,69.0,29.98,NE,38,13.0,-999.0,87,-99.99,,,0.00,weatherlink.com 1.10,2013-04-23 12:17:00,
2013-04-23 08:32:00,75.4,70.0,29.99,NE,48,9.0,-999.0,82,-99.99,,,0.00,weatherlink.com 1.10,2013-04-23 12:32:00,
2013-04-23 08:47:00,75.7,70.0,29.99,NE,46,9.0,-999.0,81,-99.99,,,0.00,weatherlink.com 1.10,2013-04-23 12:47:00,
2013-04-23 09:02:00,76.5,70.0,30.00,NNE,29,17.0,-999.0,79,-99.99,,,0.00,weatherlink.com 1.10,2013-04-23 13:02:00,
2013-04-23 09:17:00,76.6,69.0,30.00,NE,36,16.0,-999.0,77,-99.99,,,0.00,weatherlink.com 1.10,2013-04-23 13:17:00,
2013-04-23 09:32:00,77.2,69.0,30.01,NNE,30,13.0,-999.0,76,-99.99,,,0.00,weatherlink.com 1.10,2013-04-23 13:32:00,
2013-04-23 09:47:00,77.2,68.0,30.02,NE,44,14.0,-999.0,74,-99.99,,,0.00,weatherlink.com 1.10,2013-04-23 13:47:00,
2013-04-23 10:02:00,77.3,69.0,30.03,NE,42,11.0,-999.0,75,-99.99,,,0.00,weatherlink.com 1.10,2013-04-23 14:02:00,
2013-04-23 10:17:00,77.6,69.0,30.03,NE,44,11.0,-999.0,75,-99.99,,,0.00,weatherlink.com 1.10,2013-04-23 14:17:00,
2013-04-23 10:32:00,77.9,68.0,30.03,NE,40,14.0,-999.0,72,-99.99,,,0.00,weatherlink.com 1.10,2013-04-23 14:32:00,
2013-04-23 10:47:00,79.0,69.0,30.04,NE,46,10.0,-999.0,72,-99.99,,,0.00,weatherlink.com 1.10,2013-04-23 14:47:00,
2013-04-23 11:03:00,79.1,70.0,30.04,NE,34,6.0,-999.0,73,-99.99,,,0.00,weatherlink.com 1.10,2013-04-23 15:03:00,
2013-04-23 11:18:00,78.7,69.0,30.05,NE,44,11.0,-999.0,73,-99.99,,,0.00,weatherlink.com 1.10,2013-04-23 15:18:00,
2013-04-23 11:33:00,79.3,70.0,30.05,NE,48,17.0,-999.0,72,-99.99,,,0.00,weatherlink.com 1.10,2013-04-23 15:33:00,
2013-04-23 11:48:00,79.2,69.0,30.05,NE,52,9.0,-999.0,71,-99.99,,,0.00,weatherlink.com 1.10,2013-04-23 15:48:00,
2013-04-23 12:03:00,79.4,69.0,30.05,NE,42,6.0,-999.0,70,-99.99,,,0.00,weatherlink.com 1.10,2013-04-23 16:03:00,
2013-04-23 12:18:00,80.1,68.0,30.04,ENE,59,10.0,-999.0,67,-99.99,,,0.00,weatherlink.com 1.10,2013-04-23 16:18:00,
2013-04-23 12:33:00,79.6,70.0,30.04,NNE,13,6.0,-999.0,72,-99.99,,,0.00,weatherlink.com 1.10,2013-04-23 16:33:00,
2013-04-23 12:48:00,79.4,70.0,30.04,NNE,31,14.0,-999.0,72,-99.99,,,0.00,weatherlink.com 1.10,2013-04-23 16:48:00,
2013-04-23 13:03:00,79.6,69.0,30.03,NE,51,0.0,-999.0,71,-99.99,,,0.00,weatherlink.com 1.10,2013-04-23 17:03:00,
2013-04-23 13:18:00,80.0,69.0,30.03,NE,42,10.0,-999.0,68,-99.99,,,0.00,weatherlink.com 1.10,2013-04-23 17:18:00,
2013-04-23 13:33:00,79.5,68.0,30.03,NE,34,0.0,-999.0,69,-99.99,,,0.00,weatherlink.com 1.10,2013-04-23 17:33:00,
2013-04-23 13:48:00,79.1,67.0,30.03,NE,55,0.0,-999.0,66,-99.99,,,0.00,weatherlink.com 1.10,2013-04-23 17:48:00,
2013-04-23 14:03:00,79.9,68.0,30.03,NE,36,9.0,-999.0,67,-99.99,,,0.00,weatherlink.com 1.10,2013-04-23 18:03:00,
2013-04-23 14:18:00,80.3,68.0,30.02,ENE,68,0.0,-999.0,66,-99.99,,,0.00,weatherlink.com 1.10,2013-04-23 18:18:00,
2013-04-23 14:33:00,78.8,67.0,30.03,NE,42,9.0,-999.0,67,-99.99,,,0.00,weatherlink.com 1.10,2013-04-23 18:33:00,
2013-04-23 14:48:00,79.7,66.0,30.03,NE,46,0.0,-999.0,64,-99.99,,,0.00,weatherlink.com 1.10,2013-04-23 18:48:00,
2013-04-23 15:03:00,79.2,68.0,30.02,NE,40,0.0,-999.0,69,-99.99,,,0.00,weatherlink.com 1.10,2013-04-23 19:03:00,
2013-04-23 15:18:00,79.4,67.0,30.02,NE,46,4.0,-999.0,66,-99.99,,,0.00,weatherlink.com 1.10,2013-04-23 19:18:00,
2013-04-23 15:33:00,78.6,67.0,30.02,ENE,69,7.0,-999.0,67,-99.99,,,0.00,weatherlink.com 1.10,2013-04-23 19:33:00,
2013-04-23 15:48:00,79.4,68.0,30.02,ENE,59,10.0,-999.0,68,-99.99,,,0.00,weatherlink.com 1.10,2013-04-23 19:48:00,
2013-04-23 16:03:00,78.5,68.0,30.01,NE,42,0.0,-999.0,69,-99.99,,,0.00,weatherlink.com 1.10,2013-04-23 20:03:00,
2013-04-23 16:18:00,79.2,68.0,30.00,NE,51,11.0,-999.0,68,-99.99,,,0.00,weatherlink.com 1.10,2013-04-23 20:18:00,
2013-04-23 16:33:00,78.5,66.0,30.00,NE,46,0.0,-999.0,65,-99.99,,,0.00,weatherlink.com 1.10,2013-04-23 20:33:00,
2013-04-23 16:48:00,78.1,65.0,30.00,NE,41,0.0,-999.0,65,-99.99,,,0.00,weatherlink.com 1.10,2013-04-23 20:48:00,
2013-04-23 17:03:00,77.8,66.0,30.00,NNE,32,0.0,-999.0,68,-99.99,,,0.00,weatherlink.com 1.10,2013-04-23 21:03:00,
2013-04-23 17:18:00,77.4,66.0,30.00,North,9,0.0,-999.0,68,-99.99,,,0.00,weatherlink.com 1.10,2013-04-23 21:18:00,
2013-04-23 17:33:00,77.5,67.0,30.00,NNE,22,0.0,-999.0,69,-99.99,,,0.00,weatherlink.com 1.10,2013-04-23 21:33:00,
2013-04-23 17:48:00,76.7,66.0,30.01,NE,52,10.0,-999.0,70,-99.99,,,0.00,weatherlink.com 1.10,2013-04-23 21:48:00,
2013-04-23 18:03:00,75.6,65.0,30.01,NE,38,5.0,-999.0,69,-99.99,,,0.00,weatherlink.com 1.10,2013-04-23 22:03:00,
2013-04-23 18:18:00,74.8,65.0,30.01,NE,43,0.0,-999.0,71,-99.99,,,0.00,weatherlink.com 1.10,2013-04-23 22:18:00,
2013-04-23 18:33:00,73.5,65.0,30.02,NE,38,0.0,-999.0,74,-99.99,,,0.00,weatherlink.com 1.10,2013-04-23 22:33:00,
2013-04-23 18:48:00,73.5,67.0,30.02,North,5,0.0,-999.0,79,-99.99,,,0.00,weatherlink.com 1.10,2013-04-23 22:48:00,
2013-04-23 19:03:00,72.8,67.0,30.02,North,11,0.0,-999.0,82,-99.99,,,0.00,weatherlink.com 1.10,2013-04-23 23:03:00,
2013-04-23 19:18:00,72.0,67.0,30.02,North,9,0.0,-999.0,83,-99.99,,,0.00,weatherlink.com 1.10,2013-04-23 23:18:00,
2013-04-23 19:33:00,71.3,66.0,30.02,North,349,0.0,-999.0,84,-99.99,,,0.00,weatherlink.com 1.10,2013-04-23 23:33:00,
2013-04-23 19:48:00,71.0,66.0,30.02,North,351,5.0,-999.0,85,-99.99,,,0.00,weatherlink.com 1.10,2013-04-23 23:48:00,
2013-04-23 20:03:00,70.7,66.0,30.02,NNE,17,5.0,-999.0,86,-99.99,,,0.00,weatherlink.com 1.10,2013-04-24 00:03:00,
2013-04-23 20:18:00,70.6,66.0,30.03,NNE,16,0.0,-999.0,86,-99.99,,,0.00,weatherlink.com 1.10,2013-04-24 00:18:00,
2013-04-23 20:33:00,70.3,67.0,30.03,NNE,29,10.0,-999.0,88,-99.99,,,0.00,weatherlink.com 1.10,2013-04-24 00:33:00,
2013-04-23 20:48:00,70.2,66.0,30.03,North,5,6.0,-999.0,87,-99.99,,,0.00,weatherlink.com 1.10,2013-04-24 00:48:00,
2013-04-23 21:03:00,70.1,67.0,30.04,North,355,3.0,-999.0,88,-99.99,,,0.00,weatherlink.com 1.10,2013-04-24 01:03:00,
2013-04-23 21:18:00,70.1,67.0,30.05,NE,34,0.0,-999.0,88,-99.99,,,0.00,weatherlink.com 1.10,2013-04-24 01:18:00,
2013-04-23 21:33:00,70.0,66.0,30.05,NNE,14,0.0,-999.0,88,-99.99,,,0.00,weatherlink.com 1.10,2013-04-24 01:33:00,
2013-04-23 21:48:00,70.1,67.0,30.05,NNE,19,1.0,-999.0,88,-99.99,,,0.00,weatherlink.com 1.10,2013-04-24 01:48:00,
2013-04-23 22:03:00,69.9,67.0,30.05,NNE,26,7.0,-999.0,89,-99.99,,,0.00,weatherlink.com 1.10,2013-04-24 02:03:00,
2013-04-23 22:18:00,69.9,65.0,30.06,North,9,0.0,-999.0,85,-99.99,,,0.00,weatherlink.com 1.10,2013-04-24 02:18:00,
2013-04-23 22:33:00,70.0,66.0,30.06,NNE,26,2.0,-999.0,87,-99.99,,,0.00,weatherlink.com 1.10,2013-04-24 02:33:00,
2013-04-23 22:48:00,69.9,66.0,30.06,North,360,0.0,-999.0,88,-99.99,,,0.00,weatherlink.com 1.10,2013-04-24 02:48:00,
2013-04-23 23:03:00,70.4,64.0,30.06,NE,39,3.0,-999.0,81,-99.99,,,0.00,weatherlink.com 1.10,2013-04-24 03:03:00,
2013-04-23 23:18:00,70.8,63.0,30.05,ENE,67,2.0,-999.0,77,-99.99,,,0.00,weatherlink.com 1.10,2013-04-24 03:18:00,
2013-04-23 23:33:00,71.1,63.0,30.06,ENE,62,6.0,-999.0,76,-99.99,,,0.00,weatherlink.com 1.10,2013-04-24 03:33:00,